Starlink 11299

operational
NORAD ID: 61058 Int'l Des: 2024-164 Owner: SPXS Country: US Constellation: starlink
LEOCIRCULAR

Starlink 11299について

説明を読み込み中...

リアルタイム位置

3D地球を読み込み中...

次回通過

高度履歴

Altitude vs Time

uPlot chart will show altitude changes over time

軌道要素

1 61058U 24164J 25306.02531850 .00001140 00000-0 14269-4 0 9999
2 61058 53.1606 220.9086 0001211 105.8969 254.2183 15.69702853 65364
Epoch: Nov 2, 2025 • Age: 43 hours

現在のステータス

高度 360.7 km
速度 7.70 km/s
衛星直下点 29.67°N, 23.63°E
打ち上げ日 Sep 13, 2024
運用期間 1.1 years
タイプ internet

技術仕様

分類 Payload
質量 960.00 kg
乾燥質量 910.00 kg
総質量 960.00 kg
長さ 0.30 m
直径 4.10 m
スパン 29.00 m
形状 Box + pan
製造者 SPXS
バスタイプ Starlink V2MD
フェーズステータス In Orbit
所有者/国 SPXS/US

大規模コンステレーション

Loading constellations...